THOR ABLESTAR DEB, 320

Orbit data source: Space-Track

THOR ABLESTAR DEB, 320 is space debris in LEO originally from a launch on Thu, 29 Jun 1961 UTC launched from the Air Force Eastern Test Range (AFETR). Debris objects in space refer to the collection of defunct objects orbiting the Earth. Examples of debris include non-operational satellites, rocket bodies, and fragments generated from explosions, collisions, or faulty payload assembly.

Loading next visibility...
Identifier
320, 1961-015CW
Orbit
LEO
Country
Flag of USUS
Related business
Manufacturer
Unknown
Mission
Spacecraft
Bus & Motor
Unknown
Mass
Unknown
Launch date (UTC)
1961-06-29 (65 years ago)
Launch vehicle
Unknown
Launch site
Air Force Eastern Test Range (AFETR)
Object type
Payload
Rocket body
Debris
Shape & HBR
Unknown shape, 0.2 m
Radar Cross Section
Medium (>0.1 m² and <1 m²)

Expand to show TLE details & history
Last TLE update: 8 hours ago

TLE from 8 hours ago
0 THOR ABLESTAR DEB
1   320U 61015CW  26237.42753284  .00000310  00000-0  14018-3 0  9994
2   320  66.9031 226.2418 0136487 329.0218  30.2881 14.29624615378258
Epoch: 2026-08-25T10:15Z
TLE epoch observation values (Epoch: 2026-08-25T10:15:38.837Z)
Latitude
0.00002°
Longitude
98.63495°
Altitude
710.929 km
Speed
7.545 km/s
True Right ascension
15h 04m 58s
True Declination
0° 00' 00"
Sunlit
Object was in daylight at epoch
Visualization orbit readout
Latitude
Unknown
Longitude
Unknown
Altitude
Unknown
Speed
Unknown
Apparent Right ascension
Unknown
Apparent Declination
Unknown
Sunlit
N/A
Visualization observer readout
Local Sidereal Time
09:21:46
Azimuth
Unknown
Elevation
Unknown
Doppler factor
Unknown
Orbital elements
Apogee altitude
889.191 km
Perigee altitude
693.483 km
Semi-major axis
7,169.474 km
Eccentricity
0.01365
Inclination
66.9031°
RAAN
226.2418°
Arg. of periapsis
329.0218°
True anomaly
31.08868°
Mean anomaly
30.2881°
Eccentric anomaly
30.6872°
Mean motion
3.5753 °/min
Orbital period
100.69 mins
BSTAR
0.00014018

Documentation

Showing up to 5 results
|